When you browse on this site, cookies collect data to enhance your experience and personalize the content and advertising you see.
Visit our Privacy Policy to learn more. By continuing to use the site, you agree to this use of cookies and data.
  • Em Portugal
  • Lista de países
  • Para 7 dias
  • Temperatura da água
  • Mapas de satélite
  • Mapa do tempo
  • Widgets de tempo
  • user-avatar
    Iniciar Sessão

    Previsão horária em Struga

    Hoje, 21 Março, Quinta-feira

    Tempo Temperatura Precipitação Vento Pressão Humidade
    00:00 +3°C° 0 mm 2 m/s 738 mmHg 67%
    01:00 +3°C° 0 mm 2 m/s 739 mmHg 66%
    02:00 +3°C° 0 mm 2 m/s 738 mmHg 67%
    03:00 +3°C° 0 mm 2 m/s 738 mmHg 68%
    04:00 +3°C° 0 mm 2 m/s 738 mmHg 68%
    05:00 +3°C° 0 mm 2 m/s 738 mmHg 69%
    06:00 +3°C° 0 mm 2 m/s 739 mmHg 70%
    07:00 +4°C° 0 mm 2 m/s 739 mmHg 70%
    08:00 +6°C° 0 mm 2 m/s 739 mmHg 69%
    09:00 +8°C° 0 mm 2 m/s 739 mmHg 67%
    10:00 +9°C° 0 mm 2 m/s 739 mmHg 66%
    11:00 +10°C° 0 mm 2 m/s 739 mmHg 64%
    12:00 +12°C° 0 mm 2 m/s 739 mmHg 62%
    13:00 +12°C° 0 mm 2 m/s 739 mmHg 63%
    14:00 +12°C° 0 mm 2 m/s 739 mmHg 63%
    15:00 +13°C° 0 mm 2 m/s 738 mmHg 63%
    16:00 +13°C° 0 mm 2 m/s 738 mmHg 64%
    17:00 +12°C° 0 mm 2 m/s 738 mmHg 70%
    18:00 +10°C° 0 mm 1 m/s 738 mmHg 76%
    19:00 +9°C° 0 mm 1 m/s 738 mmHg 82%
    20:00 +8°C° 0 mm 1 m/s 738 mmHg 84%
    21:00 +8°C° 0 mm 1 m/s 738 mmHg 86%
    22:00 +8°C° 0 mm 1 m/s 738 mmHg 87%
    23:00 +7°C° 0 mm 1 m/s 738 mmHg 88%

    Amanhã, 22 Março, Sexta-feira

    Tempo Temperatura Precipitação Vento Pressão Humidade
    00:00 +7°C° 0 mm 1 m/s 738 mmHg 88%
    01:00 +7°C° 0 mm 1 m/s 738 mmHg 89%
    02:00 +7°C° 0 mm 1 m/s 738 mmHg 89%
    03:00 +7°C° 0 mm 1 m/s 738 mmHg 90%
    04:00 +6°C° 0 mm 1 m/s 738 mmHg 90%
    05:00 +7°C° 0 mm 1 m/s 738 mmHg 90%
    06:00 +7°C° 0 mm 1 m/s 738 mmHg 90%
    07:00 +7°C° 0 mm 1 m/s 738 mmHg 89%
    08:00 +9°C° 0 mm 1 m/s 739 mmHg 84%
    09:00 +11°C° 0 mm 1 m/s 739 mmHg 78%
    10:00 +13°C° 0 mm 1 m/s 739 mmHg 72%
    11:00 +12°C° 0 mm 2 m/s 739 mmHg 75%
    12:00 +12°C° 0 mm 2 m/s 739 mmHg 78%
    13:00 +12°C° 0 mm 2 m/s 738 mmHg 80%
    14:00 +13°C° 0 mm 2 m/s 738 mmHg 77%
    15:00 +13°C° 0 mm 2 m/s 738 mmHg 74%
    16:00 +14°C° 0 mm 1 m/s 737 mmHg 70%
    17:00 +13°C° 0 mm 1 m/s 737 mmHg 76%
    18:00 +11°C° 0 mm 1 m/s 737 mmHg 82%
    19:00 +10°C° 0 mm 1 m/s 737 mmHg 88%
    20:00 +9°C° 0 mm 1 m/s 736 mmHg 89%
    21:00 +9°C° 0 mm 1 m/s 736 mmHg 91%
    22:00 +8°C° 0 mm 1 m/s 736 mmHg 92%
    23:00 +8°C° 0 mm 1 m/s 736 mmHg 91%

    Depois de amanhã, 23 Março, Sábado

    Tempo Temperatura Precipitação Vento Pressão Humidade
    00:00 +7°C° 0 mm 2 m/s 736 mmHg 91%
    01:00 +7°C° 0 mm 2 m/s 736 mmHg 91%
    02:00 +7°C° 0 mm 2 m/s 735 mmHg 91%
    03:00 +7°C° 0 mm 2 m/s 735 mmHg 91%
    04:00 +7°C° 0 mm 2 m/s 735 mmHg 91%
    05:00 +7°C° 0 mm 2 m/s 735 mmHg 90%
    06:00 +7°C° 0 mm 2 m/s 735 mmHg 89%
    07:00 +8°C° 0 mm 2 m/s 735 mmHg 88%
    08:00 +10°C° 0 mm 2 m/s 735 mmHg 79%
    09:00 +13°C° 0 mm 2 m/s 735 mmHg 69%
    10:00 +15°C° 0 mm 2 m/s 735 mmHg 60%
    11:00 +16°C° 0 mm 2 m/s 734 mmHg 56%
    12:00 +17°C° 0 mm 2 m/s 734 mmHg 52%
    13:00 +18°C° 0 mm 2 m/s 734 mmHg 48%
    14:00 +18°C° 0 mm 2 m/s 733 mmHg 49%
    15:00 +18°C° 0 mm 2 m/s 733 mmHg 49%
    16:00 +18°C° 0 mm 2 m/s 733 mmHg 50%
    17:00 +16°C° 0 mm 2 m/s 733 mmHg 57%
    18:00 +15°C° 0 mm 2 m/s 733 mmHg 65%
    19:00 +13°C° 0 mm 2 m/s 733 mmHg 73%
    20:00 +12°C° 0 mm 2 m/s 733 mmHg 78%
    21:00 +10°C° 0 mm 2 m/s 733 mmHg 82%
    22:00 +10°C° 0 mm 2 m/s 733 mmHg 87%
    23:00 +9°C° 0 mm 3 m/s 734 mmHg 88%

    24 Março, Domingo

    Tempo Temperatura Precipitação Vento Pressão Humidade
    00:00 +9°C° 0 mm 3 m/s 734 mmHg 90%
    01:00 +9°C° 0 mm 3 m/s 734 mmHg 91%
    02:00 +8°C° 0 mm 3 m/s 734 mmHg 90%
    03:00 +7°C° 0 mm 3 m/s 734 mmHg 89%
    04:00 +7°C° 0 mm 3 m/s 734 mmHg 87%
    05:00 +5°C° 0 mm 3 m/s 734 mmHg 84%
    06:00 +5°C° 0 mm 3 m/s 734 mmHg 81%
    07:00 +5°C° 0 mm 2 m/s 734 mmHg 77%
    08:00 +6°C° 0 mm 2 m/s 734 mmHg 70%
    09:00 +7°C° 0 mm 2 m/s 735 mmHg 63%
    10:00 +7°C° 0 mm 3 m/s 735 mmHg 56%
    11:00 +8°C° 0 mm 3 m/s 735 mmHg 53%
    12:00 +9°C° 0 mm 3 m/s 735 mmHg 49%
    13:00 +9°C° 0 mm 3 m/s 734 mmHg 46%
    14:00 +9°C° 0 mm 3 m/s 734 mmHg 45%
    15:00 +8°C° 0 mm 4 m/s 734 mmHg 45%
    16:00 +8°C° 0 mm 4 m/s 734 mmHg 44%
    17:00 +8°C° 0 mm 3 m/s 734 mmHg 50%
    18:00 +5°C° 0 mm 3 m/s 734 mmHg 55%
    19:00 +5°C° 0 mm 2 m/s 734 mmHg 61%
    20:00 +4°C° 0 mm 2 m/s 734 mmHg 63%
    21:00 +4°C° 0 mm 2 m/s 734 mmHg 66%
    22:00 +4°C° 0 mm 1 m/s 734 mmHg 68%
    23:00 +4°C° 0 mm 1 m/s 734 mmHg 70%

    25 Março, Segunda-feira

    Tempo Temperatura Precipitação Vento Pressão Humidade
    00:00 +3°C° 0 mm 1 m/s 734 mmHg 72%
    01:00 +3°C° 0 mm 1 m/s 734 mmHg 73%
    02:00 +3°C° 0 mm 1 m/s 734 mmHg 74%
    03:00 +2°C° 0 mm 1 m/s 734 mmHg 74%
    04:00 +2°C° 0 mm 1 m/s 734 mmHg 75%
    05:00 +2°C° 0 mm 1 m/s 734 mmHg 73%
    06:00 +2°C° 0 mm 2 m/s 734 mmHg 71%
    07:00 +2°C° 0 mm 2 m/s 734 mmHg 70%
    08:00 +2°C° 0 mm 3 m/s 733 mmHg 64%
    09:00 +4°C° 0 mm 4 m/s 733 mmHg 58%
    10:00 +5°C° 0 mm 5 m/s 733 mmHg 53%
    11:00 +5°C° 0 mm 6 m/s 733 mmHg 50%
    12:00 +7°C° 0 mm 6 m/s 732 mmHg 47%
    13:00 +6°C° 0 mm 7 m/s 732 mmHg 44%
    14:00 +6°C° 0.1 mm 7 m/s 731 mmHg 50%
    15:00 +5°C° 0.1 mm 7 m/s 731 mmHg 55%
    16:00 +5°C° 0.1 mm 8 m/s 730 mmHg 61%
    17:00 +4°C° 0.3 mm 7 m/s 730 mmHg 65%
    18:00 +3°C° 0.3 mm 7 m/s 730 mmHg 70%
    19:00 +2°C° 0.3 mm 7 m/s 730 mmHg 74%
    20:00 +1°C° 0.2 mm 6 m/s 731 mmHg 76%
    21:00 +1°C° 0.2 mm 6 m/s 731 mmHg 78%
    22:00 0°C° 0.2 mm 5 m/s 731 mmHg 80%
    23:00 -1°C° 0 mm 5 m/s 731 mmHg 80%

    26 Março, Terça-feira

    Tempo Temperatura Precipitação Vento Pressão Humidade
    00:00 -1°C° 0 mm 5 m/s 732 mmHg 81%
    01:00 -2°C° 0 mm 5 m/s 732 mmHg 82%
    02:00 -3°C° 0 mm 6 m/s 732 mmHg 83%
    03:00 -3°C° 0 mm 6 m/s 733 mmHg 83%
    04:00 -4°C° 0 mm 6 m/s 733 mmHg 84%
    05:00 -3°C° 0 mm 6 m/s 733 mmHg 84%
    06:00 -3°C° 0 mm 6 m/s 734 mmHg 84%
    07:00 -3°C° 0 mm 6 m/s 734 mmHg 84%
    08:00 -2°C° 0 mm 6 m/s 735 mmHg 79%
    09:00 -1°C° 0 mm 6 m/s 736 mmHg 74%
    10:00 +2°C° 0 mm 6 m/s 736 mmHg 69%
    11:00 +3°C° 0 mm 6 m/s 736 mmHg 66%
    12:00 +3°C° 0 mm 5 m/s 736 mmHg 62%
    13:00 +5°C° 0 mm 5 m/s 736 mmHg 58%
    14:00 +5°C° 0 mm 5 m/s 736 mmHg 56%
    15:00 +6°C° 0 mm 5 m/s 736 mmHg 55%
    16:00 +6°C° 0 mm 5 m/s 736 mmHg 53%
    17:00 +5°C° 0 mm 4 m/s 736 mmHg 58%
    18:00 +4°C° 0 mm 3 m/s 736 mmHg 63%
    19:00 +2°C° 0 mm 3 m/s 736 mmHg 69%
    20:00 +3°C° 0 mm 2 m/s 736 mmHg 70%
    21:00 +3°C° 0 mm 2 m/s 736 mmHg 72%
    22:00 +2°C° 0 mm 2 m/s 736 mmHg 73%
    23:00 +2°C° 0 mm 2 m/s 736 mmHg 75%
    Mostrar mais